Weather in Icod de los Vinos

Spain     28°22′17″N   16°43′17″W
temp.,
°C
wind,
m/s
gust,
m/s
humid.,
%
clouds,
%
prec.,
mm/h
press.,
hPa
HPBL,
m
16 april, fri
fri1601:00+12n227413 0.0 1019148
04:00+11nne22763 0.0 1018103
07:00+11nne33762 0.1 101858
10:00+14nne23612 0.0 1018702
13:00+16nne136527 0.1 1019836
16:00+16nne136724 0.0 1018732
19:00+15nne136831 0.1 1018573
22:00+13ene34773 0.0 1020197
17 april, sat
sat1701:00+12ene34787 0.0 1020162
04:00+11ene458323 0.0 1019133
07:00+11ene448313 0.0 102096
10:00+15ne23591 0.0 1020482
13:00+17nne035721 0.0 1020796
16:00+16e137139 0.0 1019615
19:00+16nne13574 0.1 1019511
22:00+13ene33750 0.0 1021157
18 april, sun
sun1801:00+13ne33652 0.0 1021100
04:00+12e33665 0.0 101961
07:00+11ene33645 0.0 102053
10:00+16ne134733 0.0 1021415
13:00+20nnw134062 0.0 1020760
16:00+19w125088 0.0 1020714
19:00+17n135846 0.0 1020494
22:00+14ne34685 0.0 1022159
19 april, mon
mon1901:00+15ene344820 0.0 1021123
04:00+14ne334533 0.0 102183
07:00+13ene4449100 0.0 102069
10:00+17ene133787 0.0 1021372
13:00+20ne133838 0.0 1021709
16:00+22nne143461 0.0 1018999
19:00+18ene34525 0.0 1019472
22:00+15ene455944 0.0 1021171
20 april, tue
tue2001:00+15ene44449 0.0 1021100
04:00+14ene44393 0.0 101984
07:00+13e44470 0.0 101966
10:00+16ene23460 0.0 1020426
13:00+18n03527 0.0 1020812
16:00+18ene035734 0.0 1018811
19:00+16nne236515 0.0 1018623
22:00+13ne34771 0.0 1020228